Seeley, CA

8:46 PM PST on February 12, 2016 (GMT -0800)
El Centro Naval Air Facility

Weather History for KNJK - January, 2014

Change the Weather History Date:

Thursday, January 9, 2014

  Actual Average Record
Temperature  
Mean Temperature 56 °F -  
Max Temperature 70 °F 67 °F 80 °F (2016)
Min Temperature 43 °F 44 °F 37 °F (2012)
Degree Days  
Heating Degree Days 8    
Growing Degree Days 6 (Base 50)    
Moisture  
Dew Point 23 °F    
Average Humidity 33    
Maximum Humidity 53    
Minimum Humidity 17    
Precipitation  
Precipitation 0.00 in - - ()
Sea Level Pressure  
Sea Level Pressure 30.05 in    
Wind  
Wind Speed 3 mph (WSW)    
Max Wind Speed 8 mph    
Max Gust Speed -    
Visibility 10 miles    
Events      
Averages and records for this station are not official NWS values.
T = Trace of Precipitation, MM = Missing Value Source: NWS Daily Summary

Daily Weather History Graph

Daily Weather History Graph

Search for Another Location

Airport or City:

Trip Planner

Search our weather history database for the weather conditions in past years. The results will help you decide how hot, cold, wet, or windy it might be!

Date:

Astronomy

Jan. 09, 2014 Rise Set
Actual Time 6:46 AM PST 4:54 PM PST
Civil Twilight 6:19 AM PST 5:21 PM PST
Nautical Twilight 5:48 AM PST 5:51 PM PST
Astronomical Twilight 5:18 AM PST 6:21 PM PST
Moon 12:16 PM PST (1/9) 1:05 AM PST (1/9)
Length of Visible Light 11h 01m
Length of Day
10h 08m
Waxing Gibbous, 67% of the Moon is Illuminated
Jan 9
Waxing Gibbous
Jan 15
Full
Jan 23
Last Quarter
Jan 30
New
Feb 6
First Quarter

Hourly Weather History & Observations

Time (PST) Temp. Windchill Dew Point Humidity Pressure Visibility Wind Dir Wind Speed Gust Speed Precip Events Conditions
12:56 AM 44.1 °F - 19.9 °F 38% 30.09 in 10.0 mi Calm Calm - N/A   Clear
1:56 AM 45.0 °F 41.8 °F 21.0 °F 39% 30.08 in 10.0 mi SW 5.8 mph - N/A   Clear
2:56 AM 46.9 °F - 19.0 °F 33% 30.07 in 10.0 mi SW 3.5 mph - N/A   Clear
3:56 AM 43.0 °F 41.3 °F 21.9 °F 43% 30.06 in 10.0 mi West 3.5 mph - N/A   Clear
4:56 AM 44.1 °F 41.5 °F 18.0 °F 35% 30.05 in 10.0 mi West 4.6 mph - N/A   Clear
5:56 AM 45.0 °F 42.6 °F 17.1 °F 33% 30.07 in 10.0 mi SW 4.6 mph - N/A   Mostly Cloudy
6:56 AM 44.1 °F 42.5 °F 17.1 °F 34% 30.08 in 10.0 mi West 3.5 mph - N/A   Scattered Clouds
7:56 AM 44.1 °F 41.5 °F 19.0 °F 37% 30.08 in 10.0 mi WSW 4.6 mph - N/A   Partly Cloudy
8:56 AM 53.1 °F - 19.9 °F 27% 30.10 in 10.0 mi West 6.9 mph - N/A   Partly Cloudy
9:56 AM 60.1 °F - 23.0 °F 24% 30.09 in 10.0 mi Calm Calm - N/A   Partly Cloudy
10:56 AM 64.9 °F - 21.9 °F 19% 30.08 in 10.0 mi Calm Calm - N/A   Partly Cloudy
11:56 AM 68.0 °F - 26.1 °F 21% 30.04 in 10.0 mi Variable 4.6 mph - N/A   Scattered Clouds
12:56 PM 68.0 °F - 24.1 °F 19% 29.98 in 10.0 mi SE 5.8 mph - N/A   Mostly Cloudy
1:56 PM 69.1 °F - 21.9 °F 17% 29.96 in 10.0 mi ESE 4.6 mph - N/A   Scattered Clouds
3:56 PM 70.0 °F - 23.0 °F 17% 29.99 in 9.0 mi NNE 5.8 mph - N/A   Mostly Cloudy
4:56 PM 64.0 °F - 25.0 °F 23% 29.99 in 8.0 mi Calm Calm - N/A   Mostly Cloudy
5:56 PM 60.1 °F - 27.0 °F 28% 30.01 in 10.0 mi West 3.5 mph - N/A   Scattered Clouds
6:56 PM 57.9 °F - 27.0 °F 31% 30.01 in 10.0 mi West 3.5 mph - N/A   Partly Cloudy
7:56 PM 50.0 °F - 28.9 °F 44% 30.04 in 10.0 mi North 4.6 mph - N/A   Scattered Clouds
8:56 PM 52.0 °F - 32.0 °F 47% 30.04 in 10.0 mi Calm Calm - N/A   Partly Cloudy
9:56 PM 45.0 °F 41.8 °F 28.9 °F 53% 30.06 in 9.0 mi SW 5.8 mph - N/A   Scattered Clouds
10:56 PM 44.1 °F 39.5 °F 26.1 °F 49% 30.08 in 10.0 mi West 8.1 mph - N/A   Scattered Clouds
11:56 PM 43.0 °F 39.5 °F 21.9 °F 43% 30.09 in 9.0 mi WSW 5.8 mph - N/A   Clear